Content
SEND FEEDBACK

Daily
Averages
Monthly
Summary
United States of America

MONTEVALLO, ALABAMA


Home > North America > United States > Alabama
Elevation: 46 feet     Latitude: 33 06N     Longitude: 086 52W

WEATHER
 
SELECT A DAY
Number of Records: 179,422;   Date Range: 6/17/98 - 12/28/14
 
SHARE

PRINT THIS DATA

[ ← Previous Day ]
WEATHER ALMANAC - JANUARY 23, 2013
[ Next Day → ]
[ °C ]   °F
Weather ElementAverageHighLow
Temperature44.9 °F54 °F (2:53 pm)36 °F (1:53 am)
Dewpoint29.6 °F42.1 °F (11:53 pm)21.2 °F (5:27 am)
Humidity55.8 %74 % (9:53 pm)40 % (11:53 am)
Barometer30.32 in30.42 in (9:53 am)30.23 in (11:53 pm)
Wind Speed2.4 mph9.2 mph (1:53 pm)
Weather ElementAverage
Visibility10 mi
Wind DirectionE (90 °)

Weather ElementTotal
Precipitation---
Heating Degree Days20 (Base 65)
Averaged from 23 records on January 23, 2013
WEATHER CONDITIONS BREAKOUT
WIND DIRECTION BREAKOUT
WEATHER BY HOUR - JANUARY 23, 2013
[ °C ]   °F
Local TimeTemperatureDewpointHumidityBarometerVisibilityWind DirectionWind SpeedGust SpeedPrecipitationEventsConditions
1:53 AM36.0 °F26.1 °F67 %30.35 in10.0 miCalmOvercast
2:53 AM37.0 °F23.0 °F57 %30.35 in10.0 miCalmOvercast
3:53 AM36.0 °F23.0 °F59 %30.34 in10.0 miCalmOvercast
4:53 AM37.0 °F23.0 °F57 %30.36 in10.0 miCalmOvercast
5:27 AM37.4 °F21.2 °F52 %30.36 in10.0 miEast (80°)3.5 mphOvercast
5:53 AM37.9 °F21.9 °F53 %30.37 in10.0 miCalmOvercast
6:48 AM37.4 °F21.2 °F52 %30.38 in10.0 miCalmOvercast
6:53 AM37.9 °F21.9 °F53 %30.39 in10.0 miCalmOvercast
7:53 AM37.9 °F23.0 °F55 %30.39 in10.0 miCalmOvercast
8:53 AM41.0 °F21.9 °F47 %30.41 in10.0 miCalmOvercast
9:53 AM43.0 °F24.1 °F47 %30.42 in10.0 miSSE (160°)3.5 mphOvercast
10:53 AM48.9 °F27.0 °F43 %30.39 in10.0 miSouth (170°)4.6 mphPartly Cloudy
11:53 AM53.1 °F28.9 °F40 %30.35 in10.0 miVariable5.8 mphMostly Cloudy
12:53 PM53.1 °F30.9 °F43 %30.31 in10.0 miSW (230°)5.8 mphOvercast
1:53 PM53.1 °F33.1 °F47 %30.29 in10.0 miSSW (200°)9.2 mphOvercast
2:53 PM54.0 °F34.0 °F47 %30.27 in10.0 miSSW (210°)5.8 mphOvercast
4:53 PM53.1 °F36.0 °F52 %30.26 in10.0 miSSW (200°)3.5 mphOvercast
5:53 PM52.0 °F37.9 °F59 %30.26 in10.0 miSSW (200°)3.5 mphOvercast
6:53 PM48.9 °F39.0 °F69 %30.25 in10.0 miCalmMostly Cloudy
7:53 PM51.1 °F39.9 °F66 %30.24 in10.0 miSouth (190°)3.5 mphMostly Cloudy
9:53 PM48.0 °F39.9 °F74 %30.24 in10.0 miCalmPartly Cloudy
10:53 PM50.0 °F41.0 °F71 %30.24 in10.0 miSSW (210°)3.5 mphMostly Cloudy
11:53 PM50.0 °F42.1 °F74 %30.23 in10.0 miSW (220°)3.5 mphMostly Cloudy
Hourly data recorded from KEET, located miles away from Montevallo, Alabama







STORIES FROM OUR PARTNERS